When you browse on this site, cookies collect data to enhance your experience and personalize the content and advertising you see.
Visit our Privacy Policy to learn more. By continuing to use the site, you agree to this use of cookies and data.
  • In United Kingdom
  • List of Countries
  • For 7 days
  • Water Temperature
  • Satellite Maps
  • Weather Map
  • Weather Widgets
  • user-avatar
    Login

    Hourly Weather Ursoaia

    Today, 24 May, Friday

    Time Temperature Precipitation Wind Pressure Humidity
    00:00 +19°C° 0.1 mm 3 mps 750 mmHg 65%
    01:00 +18°C° 0.1 mm 2 mps 750 mmHg 69%
    02:00 +17°C° 0.1 mm 2 mps 750 mmHg 74%
    03:00 +16°C° 0.3 mm 2 mps 750 mmHg 77%
    04:00 +16°C° 0.3 mm 2 mps 750 mmHg 81%
    05:00 +16°C° 0.3 mm 2 mps 750 mmHg 85%
    06:00 +17°C° 0 mm 3 mps 750 mmHg 79%
    07:00 +19°C° 0 mm 3 mps 750 mmHg 73%
    08:00 +21°C° 0 mm 3 mps 750 mmHg 68%
    09:00 +22°C° 1 mm 3 mps 750 mmHg 61%
    10:00 +24°C° 1 mm 2 mps 750 mmHg 53%
    11:00 +26°C° 1 mm 1 mps 749 mmHg 46%
    12:00 +26°C° 0 mm 1 mps 749 mmHg 45%
    13:00 +26°C° 0 mm 1 mps 749 mmHg 43%
    14:00 +27°C° 0 mm 1 mps 749 mmHg 42%
    15:00 +27°C° 0 mm 2 mps 749 mmHg 43%
    16:00 +27°C° 0 mm 3 mps 748 mmHg 44%
    17:00 +26°C° 0 mm 3 mps 748 mmHg 46%
    18:00 +25°C° 0.2 mm 3 mps 748 mmHg 52%
    19:00 +22°C° 0.2 mm 3 mps 748 mmHg 58%
    20:00 +20°C° 0.2 mm 3 mps 748 mmHg 64%
    21:00 +19°C° 1 mm 2 mps 749 mmHg 69%
    22:00 +19°C° 1 mm 2 mps 749 mmHg 74%
    23:00 +18°C° 1 mm 2 mps 749 mmHg 79%

    Tomorrow, 25 May, Saturday

    Time Temperature Precipitation Wind Pressure Humidity
    00:00 +17°C° 0.2 mm 2 mps 749 mmHg 82%
    01:00 +18°C° 0.2 mm 1 mps 749 mmHg 85%
    02:00 +18°C° 0.2 mm 1 mps 749 mmHg 87%
    03:00 +18°C° 0.3 mm 1 mps 749 mmHg 87%
    04:00 +18°C° 0.3 mm 1 mps 749 mmHg 88%
    05:00 +18°C° 0.3 mm 1 mps 749 mmHg 88%
    06:00 +18°C° 0 mm 2 mps 749 mmHg 84%
    07:00 +19°C° 0 mm 3 mps 749 mmHg 80%
    08:00 +19°C° 0 mm 3 mps 749 mmHg 77%
    09:00 +21°C° 0 mm 4 mps 750 mmHg 70%
    10:00 +22°C° 0 mm 4 mps 750 mmHg 64%
    11:00 +25°C° 0 mm 4 mps 750 mmHg 58%
    12:00 +25°C° 0.3 mm 4 mps 750 mmHg 55%
    13:00 +26°C° 0.3 mm 4 mps 750 mmHg 52%
    14:00 +27°C° 0.3 mm 4 mps 749 mmHg 49%
    15:00 +26°C° 0.7 mm 4 mps 749 mmHg 51%
    16:00 +26°C° 0.7 mm 4 mps 749 mmHg 53%
    17:00 +25°C° 0.7 mm 4 mps 749 mmHg 55%
    18:00 +23°C° 0.2 mm 4 mps 750 mmHg 62%
    19:00 +22°C° 0.2 mm 4 mps 750 mmHg 69%
    20:00 +20°C° 0.2 mm 3 mps 750 mmHg 76%
    21:00 +20°C° 0.1 mm 3 mps 750 mmHg 78%
    22:00 +19°C° 0.1 mm 3 mps 751 mmHg 80%
    23:00 +19°C° 0.1 mm 3 mps 751 mmHg 82%

    Day after tomorrow, 26 May, Sunday

    Time Temperature Precipitation Wind Pressure Humidity
    00:00 +18°C° 0 mm 3 mps 751 mmHg 83%
    01:00 +18°C° 0 mm 3 mps 751 mmHg 84%
    02:00 +17°C° 0 mm 4 mps 752 mmHg 86%
    03:00 +17°C° 0 mm 4 mps 752 mmHg 86%
    04:00 +17°C° 0 mm 3 mps 752 mmHg 87%
    05:00 +16°C° 0 mm 3 mps 752 mmHg 88%
    06:00 +18°C° 0 mm 3 mps 753 mmHg 81%
    07:00 +20°C° 0 mm 4 mps 753 mmHg 74%
    08:00 +21°C° 0 mm 4 mps 753 mmHg 68%
    09:00 +24°C° 0 mm 3 mps 754 mmHg 61%
    10:00 +25°C° 0 mm 3 mps 754 mmHg 55%
    11:00 +26°C° 0 mm 3 mps 754 mmHg 49%
    12:00 +27°C° 0 mm 2 mps 754 mmHg 46%
    13:00 +27°C° 0 mm 2 mps 753 mmHg 43%
    14:00 +28°C° 0 mm 2 mps 753 mmHg 41%
    15:00 +28°C° 0 mm 2 mps 753 mmHg 41%
    16:00 +28°C° 0 mm 2 mps 753 mmHg 41%
    17:00 +28°C° 0 mm 2 mps 753 mmHg 41%
    18:00 +27°C° 0 mm 2 mps 753 mmHg 46%
    19:00 +26°C° 0 mm 1 mps 753 mmHg 50%
    20:00 +24°C° 0 mm 1 mps 754 mmHg 55%
    21:00 +23°C° 0 mm 2 mps 754 mmHg 57%
    22:00 +23°C° 0 mm 2 mps 754 mmHg 59%
    23:00 +21°C° 0 mm 2 mps 754 mmHg 61%

    27 May, Monday

    Time Temperature Precipitation Wind Pressure Humidity
    00:00 +21°C° 0 mm 2 mps 754 mmHg 66%
    01:00 +20°C° 0 mm 3 mps 754 mmHg 70%
    02:00 +19°C° 0 mm 3 mps 754 mmHg 75%
    03:00 +19°C° 0 mm 3 mps 754 mmHg 77%
    04:00 +19°C° 0 mm 3 mps 754 mmHg 80%
    05:00 +19°C° 0 mm 3 mps 754 mmHg 83%
    06:00 +21°C° 0 mm 3 mps 754 mmHg 75%
    07:00 +22°C° 0 mm 3 mps 755 mmHg 68%
    08:00 +25°C° 0 mm 4 mps 755 mmHg 61%
    09:00 +27°C° 0 mm 4 mps 755 mmHg 55%
    10:00 +28°C° 0 mm 5 mps 755 mmHg 48%
    11:00 +30°C° 0 mm 5 mps 755 mmHg 42%
    12:00 +30°C° 0 mm 6 mps 755 mmHg 40%
    13:00 +30°C° 0 mm 6 mps 754 mmHg 38%
    14:00 +32°C° 0 mm 6 mps 754 mmHg 36%
    15:00 +30°C° 0 mm 6 mps 754 mmHg 37%
    16:00 +29°C° 0 mm 7 mps 754 mmHg 39%
    17:00 +29°C° 0 mm 7 mps 754 mmHg 40%
    18:00 +27°C° 0 mm 6 mps 754 mmHg 47%
    19:00 +24°C° 0 mm 6 mps 754 mmHg 55%
    20:00 +21°C° 0 mm 5 mps 754 mmHg 62%
    21:00 +20°C° 0 mm 5 mps 754 mmHg 67%
    22:00 +19°C° 0 mm 4 mps 754 mmHg 71%
    23:00 +18°C° 0 mm 4 mps 754 mmHg 76%

    28 May, Tuesday

    Time Temperature Precipitation Wind Pressure Humidity
    00:00 +17°C° 0 mm 3 mps 754 mmHg 79%
    01:00 +17°C° 0 mm 3 mps 754 mmHg 82%
    02:00 +16°C° 0 mm 3 mps 754 mmHg 85%
    03:00 +16°C° 0 mm 3 mps 754 mmHg 86%
    04:00 +16°C° 0 mm 3 mps 754 mmHg 86%
    05:00 +16°C° 0 mm 3 mps 753 mmHg 87%
    06:00 +18°C° 0 mm 4 mps 753 mmHg 79%
    07:00 +20°C° 0 mm 5 mps 753 mmHg 72%
    08:00 +22°C° 0 mm 6 mps 753 mmHg 64%
    09:00 +23°C° 0 mm 6 mps 753 mmHg 59%
    10:00 +26°C° 0 mm 6 mps 753 mmHg 54%
    11:00 +28°C° 0 mm 6 mps 752 mmHg 48%
    12:00 +29°C° 0 mm 7 mps 752 mmHg 46%
    13:00 +30°C° 0 mm 7 mps 752 mmHg 43%
    14:00 +30°C° 0 mm 7 mps 751 mmHg 40%
    15:00 +30°C° 0 mm 7 mps 751 mmHg 42%
    16:00 +29°C° 0 mm 7 mps 750 mmHg 44%
    17:00 +29°C° 0 mm 7 mps 750 mmHg 46%
    18:00 +27°C° 0 mm 7 mps 750 mmHg 53%
    19:00 +24°C° 0 mm 6 mps 750 mmHg 60%
    20:00 +21°C° 0 mm 6 mps 750 mmHg 67%
    21:00 +20°C° 0 mm 5 mps 750 mmHg 72%
    22:00 +20°C° 0 mm 5 mps 750 mmHg 76%
    23:00 +19°C° 0 mm 4 mps 751 mmHg 80%

    29 May, Wednesday

    Time Temperature Precipitation Wind Pressure Humidity
    00:00 +18°C° 0 mm 4 mps 750 mmHg 83%
    01:00 +18°C° 0 mm 3 mps 750 mmHg 85%
    02:00 +17°C° 0 mm 2 mps 750 mmHg 88%
    03:00 +17°C° 0 mm 2 mps 750 mmHg 88%
    04:00 +17°C° 0 mm 2 mps 750 mmHg 89%
    05:00 +17°C° 0 mm 2 mps 750 mmHg 90%
    06:00 +19°C° 0 mm 3 mps 750 mmHg 80%
    07:00 +21°C° 0 mm 3 mps 750 mmHg 71%
    08:00 +23°C° 0 mm 4 mps 750 mmHg 62%
    09:00 +26°C° 0 mm 4 mps 750 mmHg 53%
    10:00 +28°C° 0 mm 5 mps 750 mmHg 45%
    11:00 +30°C° 0 mm 5 mps 750 mmHg 36%
    12:00 +32°C° 0 mm 5 mps 750 mmHg 36%
    13:00 +33°C° 0 mm 4 mps 750 mmHg 35%
    14:00 +33°C° 0 mm 4 mps 750 mmHg 34%
    15:00 +33°C° 0 mm 4 mps 750 mmHg 34%
    16:00 +33°C° 0 mm 4 mps 750 mmHg 34%
    17:00 +33°C° 0 mm 4 mps 750 mmHg 34%
    18:00 +30°C° 0 mm 4 mps 750 mmHg 39%
    19:00 +28°C° 0 mm 4 mps 751 mmHg 45%
    20:00 +27°C° 0 mm 4 mps 751 mmHg 50%
    21:00 +26°C° 0 mm 4 mps 751 mmHg 54%
    22:00 +25°C° 0 mm 3 mps 751 mmHg 59%
    23:00 +24°C° 0 mm 3 mps 752 mmHg 63%
    Show more